Location: Bonn
(50.7330°N, 7.1000°E)
Time: 22:31:37
(UTC+02:00)

Envisat - Pass Details

Date: 06 August 2021
Orbit: 764 x 766 km, 98.2° (Epoch: 27 September)

Event Time Altitude Azimuth Distance (km) Brightness Sun altitude
Rises 05:16:36 0° 30° (NNE) 3,246 7.7 -7.4°
Reaches altitude 10° 05:20:29 10° 60° (ENE) 2,312 7.2 -6.9°
Maximum altitude 05:22:31 12° 84° (E) 2,149 6.4 -6.6°
Drops below altitude 10° 05:24:34 10° 108° (ESE) 2,304 6.0 -6.3°
Sets 05:28:24 0° 138° (SE) 3,223 6.3 -5.9°
